ECHO 2 DEB (METAL OBJ), 742

Orbit data source: Space-Track

ECHO 2 DEB (METAL OBJ), 742 is space debris in LEO originally from a launch on Sat, 25 Jan 1964 UTC launched from the Air Force Western Test Range (AFWTR). Debris objects in space refer to the collection of defunct objects orbiting the Earth. Examples of debris include non-operational satellites, rocket bodies, and fragments generated from explosions, collisions, or faulty payload assembly.

Loading next visibility...
Identifier
742, 1964-004C
Orbit
LEO
Country
Flag of USUS
Related business
Manufacturer
Grummann
Mission
Spacecraft
Bus & Motor
ECHO CANISTER, Unknown motor
Mass
35 kg wet, 35 kg dry
Launch date (UTC)
1964-01-25 (62 years ago)
Launch vehicle
Unknown
Launch site
Air Force Western Test Range (AFWTR)
Object type
Payload
Rocket body
Debris
Shape & HBR
Unknown shape, 0.9 m
Radar Cross Section
Large (>1 m²)

Expand to show TLE details & history
Last TLE update: 9 hours ago

TLE from 9 hours ago
0 ECHO 2 DEB (METAL OBJ)
1   742U 64004C   26198.00663334  .00000044  00000-0  67152-4 0  9991
2   742  81.4656  30.0213 0172009  47.9367 313.6245 13.26292464 21319
Epoch: 2026-07-17T00:09Z
TLE epoch observation values (Epoch: 2026-07-17T00:09:33.120Z)
Latitude
-0.00004°
Longitude
92.79337°
Altitude
1,075.277 km
Speed
7.357 km/s
True Right ascension
02h 00m 05s
True Declination
0° 00' 00"
Sunlit
Object was in daylight at epoch
Visualization orbit readout
Latitude
Unknown
Longitude
Unknown
Altitude
Unknown
Speed
Unknown
Apparent Right ascension
Unknown
Apparent Declination
Unknown
Sunlit
N/A
Visualization observer readout
Local Sidereal Time
21:41:54
Azimuth
Unknown
Elevation
Unknown
Doppler factor
Unknown
Orbital elements
Apogee altitude
1,287.686 km
Perigee altitude
1,028.427 km
Semi-major axis
7,536.193 km
Eccentricity
0.0172
Inclination
81.4656°
RAAN
30.0213°
Arg. of periapsis
47.9367°
True anomaly
312.17637°
Mean anomaly
313.6245°
Eccentric anomaly
312.90258°
Mean motion
3.31753 °/min
Orbital period
108.51 mins
BSTAR
0.000067152
Loading maneuver chart data...
Computing Atmospheric mass density...
Loading historical data...
Loading historical data...
Loading historical data...
Loading historical data...
Loading historical data...
Loading historical data...
Loading historical data...

Documentation

Showing up to 5 results
|